This demonstration page uses our WeatherBlox Daily Observations layout. Learn more.

Left ArrowRight Arrow

39.01783, -85.05884

Hourly Observations for August 25, 2022

Temp ( °F °C ) Dew Point ( °F °C ) Humidity (%) Winds ( mph kmh ) Pressure ( in mb ) Visibility ( mi km ) Precip ( " mm )
12:52 am 00:52 Clear 68 20 61 16.1 78 78 S 3 6 30.06 1018 10 16 0.00 0.00
1:52 am 01:52 Clear 63 17.2 62 16.7 97 97 S 5 7 30.05 1018 9 14 0.00 0.00
2:52 am 02:52 Clear 66 18.9 61 16.1 84 84 S 5 7 30.04 1017 10 16 0.00 0.00
3:52 am 03:52 Clear 67 19.4 60 15.6 79 79 SSW 3 6 30.04 1017 10 16 0.00 0.00
4:52 am 04:52 Mostly Clear 66 18.9 59 15 78 78 Calm 30.04 1017 10 16 0.00 0.00
5:52 am 05:52 Mostly Clear 66 18.9 59 15 78 78 Calm 30.03 1017 10 16 0.00 0.00
6:52 am 06:52 Partly Cloudy 65 18.3 59 15 81 81 Calm 30.04 1017 10 16 0.00 0.00
7:52 am 07:52 Mostly Cloudy 66 18.9 61 16.1 84 84 Calm 30.05 1018 10 16 0.00 0.00
8:52 am 08:52 Mostly Cloudy 71 21.7 62 16.7 73 73 Calm 30.06 1018 10 16 0.00 0.00
9:52 am 09:52 Mostly Cloudy 72 22.2 63 17.2 73 73 W 6 9 30.07 1018 10 16 0.00 0.00
10:52 am 10:52 Mostly Cloudy 76 24.4 64 17.8 67 67 W 5 7 30.08 1019 10 16 0.00 0.00
11:52 am 11:52 Mostly Sunny 80 26.7 65 18.3 60 60 VRB 5 7 30.07 1018 10 16 0.00 0.00
12:52 pm 12:52 Partly Cloudy 81 27.2 61 16.1 51 51 SW 6 9 30.06 1018 10 16 0.00 0.00
1:52 pm 13:52 Partly Cloudy 82 27.8 61 16.1 49 49 WSW 6 9 30.04 1017 10 16 0.00 0.00
2:52 pm 14:52 Partly Cloudy 82 27.8 63 17.2 53 53 W 6 9 30.03 1017 10 16 0.00 0.00
3:52 pm 15:52 Partly Cloudy 84 28.9 63 17.2 49 49 WNW 10 17 30.01 1016 10 16 0.00 0.00
4:52 pm 16:52 Mostly Sunny 83 28.3 62 16.7 49 49 W 9 15 30.00 1016 10 16 0.00 0.00
5:52 pm 17:52 Mostly Sunny 82 27.8 63 17.2 53 53 W 7 11 29.99 1016 10 16 0.00 0.00
6:52 pm 18:52 Mostly Sunny 81 27.2 62 16.7 53 53 W 8 13 29.98 1015 10 16 0.00 0.00
7:52 pm 19:52 Mostly Sunny 79 26.1 63 17.2 58 58 WSW 5 7 29.98 1015 10 16 0.00 0.00
8:52 pm 20:52 Mostly Clear 77 25 63 17.2 62 62 WSW 5 7 29.99 1016 10 16 0.00 0.00
9:52 pm 21:52 Clear 73 22.8 64 17.8 73 73 SW 3 6 30.00 1016 10 16 0.00 0.00
10:52 pm 22:52 Clear 72 22.2 64 17.8 76 76 SSW 5 7 30.01 1016 10 16 0.00 0.00
11:52 pm 23:52 Clear 70 21.1 64 17.8 81 81 SSW 6 9 30.01 1016 10 16 0.00 0.00

Powered by AerisWeather